User: anonymous   Login
Location: Prairie State College
(41.5244°N, 87.6382°W)
Time: 07:01:49
(UTC-06:00)
Language:

Cosmos 1943 - Orbit

View from above orbital plane
View from above orbital plane
View from above satellite
View from above satellite

Ground track
Ground track

The orbit data is extracted from the following two-line orbital elements,

1 19119U 88039A   17017.17620524 -.00000132  00000-0 -43484-4 0  9997
2 19119  71.0028  58.9065 0013898 283.9758 131.9314 14.15079361480736
Epoch (UTC): 17 January 2017 04:13:44
Eccentricity: 0.0013898
inclination: 71.0028°
perigee height: 832 km
apogee height: 852 km
right ascension of ascending node: 58.9065°
argument of perigee: 283.9758°
revolutions per day: 14.15079361
mean anomaly at epoch: 131.9314°
orbit number at epoch: 48073

The dashed part of the orbit path shows where the satellite is in the earth's shadow,  

DLR